Date,TemperatureHighF,TemperatureAvgF,TemperatureLowF,DewpointHighF,DewpointAvgF,DewpointLowF,HumidityHigh,HumidityAvg,HumidityLow,PressureMaxIn,PressureMinIn,WindSpeedMaxMPH,WindSpeedAvgMPH,GustSpeedMaxMPH,PrecipitationSumIn
2013-1-1,52.2,40.0,29.7,23.3,18.9,14.3,64,45,23,27.55,27.43,10,2,10,0.00
2013-1-2,59.7,43.3,30.7,21.5,16.3,6.5,56,37,14,27.46,27.31,8,2,8,0.00
2013-1-3,61.2,45.1,33.1,21.9,15.8,9.3,51,33,14,27.52,27.34,23,5,23,0.00
2013-1-4,57.4,46.9,38.1,20.2,13.7,6.8,36,26,17,27.61,27.49,24,5,24,0.00
2013-1-5,60.1,44.0,31.6,21.4,12.9,1.5,50,31,12,27.64,27.52,7,2,7,0.00
2013-1-6,67.5,48.6,34.5,19.4,9.5,2.5,34,23,10,27.52,27.31,12,2,12,0.00
2013-1-7,56.7,44.0,33.8,19.9,14.2,9.7,43,31,17,27.31,27.20,1,1,3,0.00
2013-1-8,58.5,44.1,32.7,21.6,15.0,6.5,49,33,17,27.43,27.26,5,1,5,0.00
2013-1-9,68.9,58.3,44.2,21.3,7.1,-0.5,33,13,10,27.55,27.40,18,4,18,0.00
2013-1-10,68.2,53.0,38.5,15.4,6.7,-2.2,28,16,10,27.43,27.20,26,4,26,0.00
2013-1-11,54.3,41.4,30.7,23.0,11.5,-5.1,54,32,14,27.43,27.26,27,4,27,0.00
2013-1-12,48.7,35.2,25.3,12.6,2.1,-7.0,42,26,14,27.43,27.31,14,2,14,0.00
2013-1-13,48.2,34.2,23.5,9.8,-0.7,-8.9,38,24,13,27.46,27.34,12,2,12,0.00
2013-1-14,46.8,32.7,22.8,7.1,-3.3,-13.8,36,22,13,27.52,27.37,19,3,19,0.00
2013-1-15,45.5,35.2,22.5,-0.6,-7.0,-12.9,25,16,12,27.67,27.52,8,2,8,0.00
2013-1-16,58.3,39.8,24.3,5.9,-4.0,-13.2,22,16,11,27.67,27.52,9,2,9,0.00
2013-1-17,66.7,50.5,32.5,8.6,2.9,-5.9,23,15,10,27.58,27.46,17,5,17,0.00
2013-1-18,71.2,56.0,45.7,10.7,3.2,-3.9,15,12,9,27.58,27.46,17,5,17,0.00
2013-1-19,72.1,52.7,34.7,11.8,5.3,-3.7,30,16,9,27.58,27.46,11,2,11,0.00
2013-1-20,74.5,54.2,38.3,19.3,8.2,-0.2,32,17,8,27.52,27.40,10,2,10,0.00
2013-1-21,76.3,56.9,41.9,22.3,10.8,2.0,33,18,8,27.49,27.37,12,2,12,0.00
2013-1-22,77.0,57.8,42.4,25.3,13.2,4.2,38,19,8,27.55,27.43,7,3,7,0.00
2013-1-23,81.0,59.7,43.5,23.1,11.6,3.9,31,17,7,27.58,27.46,7,3,7,0.00
2013-1-24,64.0,59.3,55.6,39.6,26.2,3.9,51,31,12,27.61,27.52,8,2,8,0.04
2013-1-25,78.1,63.8,51.4,39.4,34.6,24.2,58,37,15,27.55,27.37,8,2,8,0.00
2013-1-26,69.1,61.6,55.8,51.8,42.0,33.3,71,50,28,27.40,27.31,17,3,17,0.54
2013-1-27,69.6,59.1,50.2,47.8,39.1,31.6,77,51,27,27.40,27.31,12,2,12,0.00
2013-1-28,58.5,52.3,45.1,37.2,29.1,18.6,51,41,32,27.37,27.31,13,4,13,0.08
2013-1-29,52.2,44.8,38.7,23.8,14.3,3.0,48,31,14,27.52,27.34,18,6,18,0.00
2013-1-30,57.2,44.2,32.9,20.4,11.5,1.2,48,29,12,27.64,27.49,8,8,8,0.00
2013-1-31,64.4,46.8,33.6,22.2,16.0,8.4,46,31,13,27.58,27.43,8,8,8,0.00
2013-2-1,69.8,50.2,34.3,24.6,16.2,4.9,51,30,9,27.55,27.46,8,7,8,0.00
2013-2-2,74.1,51.5,19.6,24.1,16.2,1.7,45,28,8,27.58,27.46,6,2,6,0.00
2013-2-3,71.1,59.7,50.5,28.1,18.1,8.2,36,22,9,27.49,27.34,8,2,8,0.00
2013-2-4,70.9,57.6,47.5,30.1,23.3,14.4,42,28,14,27.40,27.31,10,3,10,0.00
2013-2-5,72.0,56.6,43.0,32.8,25.4,17.6,50,33,14,27.40,27.31,6,5,6,0.00
2013-2-6,72.1,57.5,46.0,31.7,23.7,11.1,48,30,12,27.40,27.28,1,1,1,0.00
2013-2-7,69.1,55.2,42.8,29.5,19.0,6.7,45,27,10,27.46,27.31,7,1,7,0.00
2013-2-8,71.1,57.0,45.1,24.1,12.0,2.5,35,19,9,27.34,27.17,20,4,20,0.00
2013-2-9,56.3,47.7,38.7,26.5,15.2,2.0,57,29,14,27.40,27.17,21,4,21,0.04
2013-2-10,57.4,44.3,32.5,20.3,11.5,1.2,48,29,12,27.40,27.28,11,2,11,0.00
2013-2-11,56.5,40.9,32.9,26.2,18.8,9.7,58,42,18,27.49,27.31,10,3,10,0.13
2013-2-12,54.3,42.6,33.1,26.8,21.0,13.5,68,44,27,27.61,27.49,8,2,8,0.00
2013-2-13,59.2,42.9,31.3,21.4,16.5,6.3,54,38,12,27.55,27.43,5,5,5,0.00
2013-2-14,63.3,53.4,45.9,14.9,8.2,3.7,28,17,11,27.49,27.37,10,3,10,0.00
2013-2-15,71.4,53.9,39.7,24.9,12.8,-0.1,42,23,9,27.58,27.46,16,2,16,0.00
2013-2-16,73.2,59.7,41.0,11.1,6.0,-1.6,21,12,9,27.61,27.37,21,6,21,0.43
2013-2-17,72.1,53.8,41.0,10.7,1.6,-5.8,16,12,9,27.37,27.23,17,3,17,0.00
2013-2-18,74.1,55.1,39.4,10.9,3.7,-4.2,18,13,8,27.43,27.28,8,2,8,0.08
2013-2-19,70.5,57.1,45.0,10.7,4.8,-1.0,15,12,9,27.31,27.11,23,4,23,0.09
2013-2-20,54.7,44.7,34.5,26.3,19.4,2.7,66,39,13,27.31,27.08,22,4,22,0.03
2013-2-21,55.9,44.8,34.3,29.1,24.1,18.2,70,47,27,27.40,27.28,9,2,9,0.33
2013-2-22,57.4,46.9,37.9,28.8,21.7,12.8,59,38,25,27.49,27.34,13,3,13,0.00
2013-2-23,64.2,48.1,33.4,23.8,14.6,3.5,52,30,11,27.49,27.20,12,2,12,0.00
2013-2-24,52.7,45.1,36.9,21.1,8.4,-6.2,44,25,11,27.43,27.17,29,6,29,0.00
2013-2-25,58.6,44.2,30.9,12.3,3.7,-4.3,33,20,12,27.55,27.37,13,3,13,0.00
2013-2-26,62.2,47.2,32.0,17.0,7.5,-1.1,41,22,11,27.43,27.31,20,4,20,0.00
2013-2-27,64.2,48.3,34.0,13.5,4.3,-4.9,33,18,10,27.55,27.43,15,3,15,0.00
2013-2-28,65.8,49.5,33.1,9.2,2.2,-7.5,30,15,10,27.64,27.52,15,3,15,0.00
2013-3-1,71.1,53.0,35.6,10.7,4.6,-4.1,27,15,9,27.67,27.55,8,2,8,0.00
2013-3-2,79.5,59.4,40.1,19.0,8.5,-0.3,32,15,7,27.64,27.46,9,2,9,0.00
2013-3-3,81.5,63.4,45.1,15.3,8.6,1.1,25,12,7,27.49,27.31,15,3,15,0.00
2013-3-4,72.5,63.8,53.8,10.7,7.6,-4.6,13,11,9,27.43,27.26,24,5,24,0.00
2013-3-5,80.4,62.8,45.3,20.6,10.2,2.5,30,14,7,27.46,27.34,16,3,16,0.00
2013-3-6,79.5,65.5,53.2,16.7,9.7,4.8,21,12,7,27.40,27.28,15,3,15,0.00
2013-3-7,78.8,63.4,48.7,19.1,9.5,2.8,26,13,7,27.34,27.26,20,4,20,0.00
2013-3-8,72.5,60.5,46.9,23.6,13.9,6.0,34,17,9,27.34,27.17,25,6,25,0.00
2013-3-9,57.6,51.3,45.5,26.0,21.6,17.8,41,31,26,27.43,27.31,13,3,13,0.00
2013-3-10,66.4,54.5,42.6,28.1,19.3,6.0,47,28,10,27.52,27.40,6,1,6,0.00
2013-3-11,71.6,56.1,40.6,24.1,14.7,6.0,40,23,9,27.52,27.37,4,4,4,0.00
2013-3-12,78.8,60.6,42.8,25.2,14.3,6.7,38,19,7,27.46,27.37,4,4,4,0.00
2013-3-13,85.8,66.6,46.2,24.5,14.2,8.5,34,16,6,27.52,27.40,5,4,5,0.00
2013-3-15,80.2,70.4,62.6,12.0,9.2,6.7,11,9,7,27.34,27.31,0,0,0,0.00
2013-3-16,88.7,70.7,52.7,12.5,8.4,3.2,13,9,5,27.34,27.14,0,0,0,0.00
2013-3-17,82.8,67.8,53.6,12.4,6.5,-1.6,12,9,6,27.34,27.20,0,0,0,0.00
2013-3-18,81.1,66.7,52.0,12.4,7.3,-1.1,13,10,7,27.40,27.28,0,0,0,0.00
2013-3-19,77.0,62.9,54.9,11.2,7.2,3.7,13,11,8,27.43,27.31,8,1,8,0.00
2013-3-20,84.9,68.5,52.2,12.4,8.0,2.8,15,10,6,27.43,27.28,12,3,12,0.00
2013-3-21,80.8,66.3,55.9,12.3,8.1,4.1,12,10,7,27.28,27.14,12,2,12,0.00
2013-3-22,80.8,69.0,56.5,12.4,8.7,4.5,12,10,7,27.23,27.11,23,5,23,0.00
2013-3-23,74.7,63.4,52.9,11.1,6.4,-1.6,13,10,8,27.37,27.23,22,5,22,0.00
2013-3-24,75.7,60.4,44.1,11.1,3.3,-4.9,13,10,8,27.40,27.26,17,4,17,0.00
2013-3-25,79.7,63.0,45.5,12.4,4.8,-4.2,12,10,7,27.37,27.28,13,3,13,0.00
2013-3-26,88.9,69.7,53.8,12.5,7.1,-1.5,12,9,5,27.37,27.23,12,3,12,0.00
2013-3-27,88.7,70.3,54.1,12.5,7.3,-1.2,12,9,5,27.40,27.28,18,4,18,0.00
2013-3-28,86.2,70.5,54.7,12.4,7.8,-1.1,12,9,6,27.43,27.34,15,4,15,0.00
2013-3-29,86.9,71.0,56.5,12.4,8.4,-1.1,12,9,6,27.46,27.37,15,3,15,0.00
2013-3-30,89.2,71.4,58.1,12.5,9.0,5.8,12,9,5,27.43,27.31,15,3,15,0.00
2013-3-31,86.0,69.6,53.1,12.3,8.1,-1.1,13,9,6,27.43,27.28,13,3,13,0.00
2013-4-1,83.7,69.2,53.6,12.4,7.9,-1.6,13,9,6,27.40,27.28,14,4,14,0.00
2013-4-2,79.0,65.1,50.9,12.4,6.6,-1.7,13,10,7,27.37,27.26,14,4,14,0.00
2013-4-3,82.6,66.9,50.0,12.3,6.4,-2.4,13,9,6,27.43,27.34,10,3,10,0.00
2013-4-4,93.4,72.3,53.4,12.5,8.0,-1.4,13,9,4,27.43,27.31,10,2,10,0.00
2013-4-5,87.8,73.2,58.1,12.5,9.3,-0.4,12,9,5,27.37,27.26,16,4,18,0.00
2013-4-6,86.4,72.1,56.7,12.3,8.9,0.7,12,9,6,27.37,27.23,17,4,17,0.00
2013-4-7,87.3,72.5,57.6,12.3,9.2,5.3,12,9,6,27.31,27.17,15,3,15,0.00
2013-4-8,86.0,70.8,47.5,40.5,10.2,5.6,75,11,6,27.17,26.84,31,9,31,0.04
2013-4-9,71.1,57.5,48.4,44.9,24.1,3.8,83,37,9,27.28,27.05,20,5,26,0.13
2013-4-10,70.2,58.8,45.9,21.6,11.3,3.7,30,16,9,27.37,27.26,18,4,18,0.13
2013-4-11,82.0,63.7,46.4,21.4,11.8,6.3,29,15,7,27.37,27.17,18,3,18,0.00
2013-4-12,84.6,66.9,53.1,12.4,8.0,3.5,13,10,6,27.23,27.14,16,3,16,0.00
2013-4-13,85.8,69.6,51.1,12.3,8.2,2.5,16,9,6,27.26,27.14,17,4,17,0.00
2013-4-14,86.4,71.7,55.9,12.3,8.7,4.1,12,9,6,27.23,27.11,22,5,22,0.00
2013-4-15,87.3,73.7,59.7,12.3,9.5,6.0,12,9,6,27.23,27.11,23,5,23,0.00
2013-4-16,87.1,74.0,59.5,12.3,9.6,6.0,12,8,6,27.26,27.14,24,6,24,0.00
2013-4-17,72.9,64.6,54.1,10.8,6.8,-1.4,12,10,9,27.40,27.28,26,7,26,0.00
2013-4-18,73.6,59.5,44.4,11.1,3.4,-4.9,13,10,8,27.49,27.37,20,4,20,0.00
2013-4-19,81.5,63.6,43.2,12.4,4.9,-4.9,15,10,7,27.49,27.31,14,3,14,0.00
2013-4-20,85.3,66.7,47.1,12.4,5.5,-3.8,12,9,6,27.37,27.28,21,3,21,0.00
2013-4-21,89.6,71.4,51.6,12.5,7.0,-1.6,12,8,5,27.43,27.31,15,3,15,0.00
2013-4-22,92.8,74.3,55.0,12.5,7.8,-1.1,12,8,4,27.37,27.20,18,3,18,0.00
2013-4-23,90.7,74.3,57.6,12.5,8.8,-0.8,12,8,5,27.28,27.20,19,4,19,0.00
2013-4-24,93.2,76.7,59.5,12.5,8.8,6.0,12,8,4,27.31,27.23,16,4,16,0.00
2013-4-25,88.2,75.1,63.3,12.5,9.9,6.7,11,8,5,27.43,27.28,26,6,26,0.00
2013-4-26,88.3,71.5,53.2,12.5,7.6,-1.6,13,8,5,27.49,27.40,13,3,13,0.00
2013-4-27,91.9,74.9,55.0,12.5,8.4,-1.1,13,8,4,27.46,27.31,13,3,13,0.00
2013-4-28,96.4,77.3,57.6,12.5,8.3,-1.0,12,8,4,27.34,27.20,13,3,13,0.00
2013-4-29,97.3,78.7,57.9,12.4,7.9,-0.6,12,7,3,27.26,27.11,18,3,18,0.00
2013-4-30,99.1,80.4,61.7,12.5,8.7,3.5,11,7,3,27.26,27.14,26,4,26,0.00
2013-5-1,92.7,77.1,60.4,12.5,9.0,1.4,12,8,4,27.37,27.26,15,4,15,0.00
2013-5-2,93.7,76.9,59.9,12.5,9.1,6.0,12,8,4,27.49,27.37,20,5,20,0.00
2013-5-3,88.9,74.6,62.4,12.5,9.6,0.6,11,8,5,27.46,27.20,28,6,28,0.00
2013-5-4,95.2,78.0,59.4,12.5,8.9,0.5,12,8,4,27.26,27.11,20,4,20,0.00
2013-5-5,94.5,79.7,66.7,12.5,9.6,6.1,10,7,4,27.34,27.20,24,5,24,0.00
2013-5-6,89.4,73.8,60.3,35.5,19.5,8.3,36,16,5,27.40,27.28,20,4,24,0.00
2013-5-7,88.9,73.1,59.5,18.1,10.8,6.0,16,10,5,27.40,27.26,24,4,24,0.00
2013-5-8,87.8,71.8,58.1,24.6,13.2,8.5,24,11,6,27.43,27.31,15,4,15,0.00
2013-5-9,87.8,73.5,59.4,26.3,12.5,6.7,24,10,5,27.40,27.28,14,3,14,0.00
2013-5-10,92.5,74.5,58.8,12.5,9.2,6.0,12,8,4,27.43,27.31,20,3,20,0.00
2013-5-11,88.5,76.3,61.3,12.5,9.9,6.4,11,8,5,27.49,27.40,24,5,24,0.00
2013-5-12,93.4,79.6,67.5,12.5,9.8,6.1,10,7,4,27.52,27.34,22,5,22,0.00
2013-5-13,96.4,81.7,65.7,12.5,9.3,6.1,10,7,4,27.46,27.31,17,4,17,0.00
2013-5-14,100.2,85.0,69.4,12.5,8.7,3.5,10,6,3,27.40,27.26,17,3,17,0.00
2013-5-15,99.5,83.9,67.1,12.5,8.6,3.5,10,6,3,27.43,27.26,23,5,23,0.00
2013-5-16,100.4,83.5,66.0,12.5,8.5,-2.8,10,6,2,27.34,27.20,22,4,22,0.00
2013-5-17,97.5,81.6,65.1,12.5,9.0,3.5,10,7,3,27.31,27.23,20,5,20,0.00
2013-5-18,94.5,80.0,65.8,12.5,9.5,6.1,10,7,4,27.34,27.26,19,4,19,0.00
2013-5-19,92.7,79.2,64.6,12.5,9.4,6.1,10,7,4,27.34,27.20,19,4,19,0.00
2013-5-20,93.2,79.0,63.9,12.5,9.3,6.1,11,7,4,27.31,27.23,23,5,24,0.00
2013-5-21,97.3,79.5,60.1,12.5,8.7,1.1,12,7,3,27.34,27.20,15,3,15,0.00
2013-5-22,100.8,82.9,63.5,12.4,7.9,-2.8,11,7,2,27.26,27.11,16,4,16,0.00
2013-5-23,100.8,84.2,65.3,12.4,8.2,-2.8,10,6,2,27.28,27.20,23,4,23,0.00
2013-5-24,100.9,84.0,66.6,12.5,8.6,-2.8,10,6,2,27.34,27.26,15,4,15,0.00
2013-5-25,101.3,83.6,66.4,12.4,8.0,-2.8,10,6,2,27.37,27.26,20,4,20,0.00
2013-5-26,100.8,82.4,63.3,12.5,8.1,-2.8,11,7,2,27.40,27.28,18,4,18,0.00
2013-5-27,99.9,81.3,62.1,12.5,8.6,3.5,11,7,3,27.31,27.17,16,4,16,0.00
2013-5-28,99.9,81.4,63.1,12.5,8.6,3.5,11,7,3,27.20,27.05,20,4,20,0.00
2013-5-29,96.1,81.7,64.4,12.5,9.2,6.1,10,7,4,27.20,27.08,18,4,18,0.00
2013-5-30,100.8,85.5,70.0,32.3,13.4,-2.8,22,8,2,27.28,27.17,16,4,16,0.00
2013-5-31,100.6,86.1,72.3,37.1,17.6,-2.8,24,11,2,27.31,27.20,17,4,17,0.00
2013-6-1,107.6,88.6,68.5,12.5,6.4,-2.8,10,5,2,27.28,27.14,13,3,13,0.00
2013-6-2,108.5,90.7,71.8,12.4,6.5,-2.8,9,5,2,27.26,27.14,23,4,23,0.00
2013-6-3,106.7,88.9,70.7,12.4,6.6,-2.8,9,5,2,27.28,27.20,16,4,16,0.00
2013-6-4,105.4,88.9,72.1,12.5,6.6,-2.8,9,5,2,27.31,27.20,18,4,18,0.00
2013-6-5,102.7,86.0,68.5,12.5,7.4,-2.8,10,6,2,27.34,27.20,15,3,15,0.00
2013-6-6,104.9,86.9,67.1,12.5,6.4,-2.8,10,6,2,27.28,27.17,14,3,14,0.00
2013-6-7,108.7,89.8,70.0,12.5,6.4,-2.8,9,5,2,27.26,27.11,13,3,13,0.00
2013-6-8,105.8,90.4,72.5,12.5,6.1,-2.8,9,5,2,27.28,27.20,16,5,16,0.00
2013-6-9,103.6,89.3,73.0,12.4,6.4,-2.8,9,5,2,27.34,27.23,18,4,18,0.00
2013-6-10,108.5,90.3,70.0,12.5,6.4,-2.8,9,5,2,27.34,27.23,10,3,10,0.00
2013-6-11,108.7,91.5,72.0,12.4,6.2,-2.8,9,5,2,27.34,27.23,13,4,13,0.00
2013-6-12,109.2,91.9,73.0,12.5,6.2,-2.8,9,5,2,27.37,27.26,21,5,21,0.00
2013-6-13,105.6,91.4,75.4,12.5,6.4,-2.8,8,5,2,27.37,27.23,15,6,15,0.00
2013-6-14,105.3,91.5,77.0,20.3,7.8,-2.8,10,5,2,27.31,27.17,20,4,20,0.00
2013-6-15,107.8,90.0,76.8,20.0,8.5,-2.8,10,5,2,27.34,27.23,18,3,18,0.00
2013-6-16,108.3,90.5,73.2,43.4,17.6,-2.8,33,11,2,27.37,27.26,18,4,18,0.00
2013-6-17,107.1,89.4,70.7,12.4,6.5,-2.8,9,5,2,27.37,27.23,14,3,14,0.00
2013-6-18,110.3,89.1,69.3,12.5,6.7,-2.8,10,5,2,27.31,27.20,18,3,18,0.00
2013-6-19,106.5,88.4,68.0,12.5,6.3,-2.8,10,5,2,27.26,27.14,21,4,21,0.00
2013-6-20,105.4,88.5,69.4,12.5,6.5,-2.8,10,5,2,27.28,27.17,18,4,18,0.00
2013-6-21,111.2,90.8,70.9,12.5,6.7,-2.8,9,5,2,27.31,27.20,21,4,21,0.00
2013-6-22,107.4,89.0,69.8,12.4,6.8,-2.8,9,5,2,27.31,27.17,18,4,18,0.00
2013-6-23,106.9,88.8,69.1,12.4,6.6,-2.8,10,5,2,27.28,27.14,22,4,22,0.00
2013-6-24,106.5,88.6,70.7,12.5,6.9,-2.8,9,5,2,27.31,27.20,26,4,26,0.00
2013-6-25,104.5,87.8,70.2,12.5,6.7,-2.8,9,5,2,27.40,27.26,17,3,17,0.00
2013-6-26,104.7,88.0,69.6,12.5,6.5,-2.8,10,5,2,27.46,27.34,18,4,18,0.00
2013-6-27,107.1,90.2,71.4,12.5,6.1,-2.8,9,5,2,27.46,27.31,25,5,25,0.00
2013-6-28,114.4,93.4,73.9,12.5,6.7,-2.8,8,5,2,27.40,27.23,16,3,16,0.00
2013-6-29,118.9,97.6,79.9,12.1,6.7,-2.8,7,4,2,27.31,27.20,26,4,26,0.00
2013-6-30,112.8,96.0,82.4,36.5,10.3,-2.8,19,5,2,27.40,27.14,40,5,40,0.00
2013-7-1,111.7,91.8,76.5,71.7,27.8,-2.7,79,16,2,27.34,27.23,26,4,26,0.00
2013-7-2,105.8,92.1,74.7,48.8,28.2,13.5,39,13,4,27.46,27.26,34,6,34,0.00
2013-7-3,108.1,92.8,76.8,39.5,18.4,-2.8,22,9,2,27.34,27.14,22,6,22,0.00
2013-7-4,106.2,94.5,81.9,40.5,18.1,-2.8,20,8,2,27.31,27.17,20,5,20,0.00
2013-7-5,107.6,87.4,77.0,57.7,38.5,10.6,49,23,3,27.34,27.20,22,4,27,0.00
2013-7-6,107.2,90.0,73.4,53.3,36.3,13.5,45,21,4,27.28,27.14,12,3,18,0.00
2013-7-7,113.0,92.8,78.6,46.7,25.8,-2.8,32,13,2,27.28,27.17,20,4,20,0.00
2013-7-8,114.4,96.0,82.4,43.4,21.1,-2.8,23,9,2,27.37,27.26,19,4,19,0.00
2013-7-9,103.3,91.5,81.0,54.0,40.7,24.7,39,20,7,27.49,27.31,25,6,25,0.00
2013-7-10,105.1,86.9,75.7,56.9,50.0,27.2,49,31,7,27.43,27.31,18,3,18,0.04
2013-7-11,102.4,85.3,74.1,63.8,52.0,43.0,67,35,15,27.43,27.28,19,4,19,0.13
2013-7-12,95.9,84.8,76.6,60.5,48.8,39.4,53,30,17,27.43,27.28,23,4,23,0.20
2013-7-13,105.4,90.1,76.1,55.2,38.0,13.5,44,21,4,27.40,27.26,17,4,17,0.00
2013-7-14,109.6,91.9,80.4,44.5,31.3,10.6,28,14,3,27.37,27.23,17,4,17,0.00
2013-7-15,107.6,91.5,79.0,49.3,34.6,10.6,32,17,3,27.31,27.17,23,4,23,0.00
2013-7-16,101.8,84.3,78.1,52.6,46.9,38.2,40,28,13,27.43,27.31,23,5,23,0.00
2013-7-17,102.7,88.7,76.3,57.4,34.4,13.5,52,20,4,27.43,27.31,19,4,19,0.00
2013-7-18,97.7,87.6,79.5,40.1,29.7,16.5,21,14,6,27.43,27.26,20,7,22,0.00
2013-7-19,102.6,87.5,79.2,48.8,38.1,16.9,31,19,7,27.40,27.26,17,4,18,0.00
2013-7-20,102.4,83.1,75.9,57.5,51.5,38.0,52,36,12,27.34,27.23,34,4,34,0.13
2013-7-21,103.3,85.8,75.0,60.1,50.0,32.7,59,34,9,27.37,27.28,17,4,17,0.00
2013-7-22,102.4,86.8,74.8,55.9,45.4,27.7,50,27,9,27.43,27.31,18,4,18,0.00
2013-7-23,100.9,88.4,75.7,48.5,37.2,16.1,35,19,6,27.43,27.28,19,4,20,0.00
2013-7-24,103.5,86.4,73.6,77.5,49.2,28.0,98,36,10,27.40,27.28,21,3,21,0.25
2013-7-25,75.2,75.2,75.2,74.6,74.6,74.6,98,98,98,27.43,27.34,11,2,11,0.25
2013-7-26,81.7,76.4,75.2,74.6,70.2,56.1,98,85,43,27.52,27.43,26,2,26,0.50
2013-7-27,96.4,84.5,75.2,59.1,51.1,42.1,53,34,17,27.46,27.28,12,6,12,0.00
2013-7-28,102.7,88.9,75.7,53.5,32.2,3.5,46,20,3,27.34,27.23,12,9,12,0.00
2013-7-29,99.9,88.8,75.9,36.5,15.1,3.5,22,8,3,27.43,27.31,6,5,6,0.00
2013-7-30,103.6,90.9,76.5,37.7,15.8,-2.8,22,8,2,27.55,27.40,6,4,6,0.00
2013-7-31,106.0,91.2,81.9,39.4,18.9,-2.8,20,9,2,27.49,27.37,9,3,9,0.00
2013-8-1,94.8,88.4,83.7,40.0,29.4,17.5,21,13,6,27.43,27.34,24,5,24,0.00
2013-8-2,97.7,86.4,79.2,48.0,39.9,25.9,27,20,8,27.40,27.31,9,3,9,0.00
2013-8-3,102.2,88.2,75.2,46.2,32.6,4.1,34,18,3,27.43,27.31,3,0,3,0.00
2013-8-4,97.2,90.0,81.1,40.1,26.3,16.5,20,11,6,27.43,27.31,9,2,9,0.00
2013-8-5,97.3,84.1,73.8,51.1,35.5,6.4,45,21,6,27.43,27.28,32,5,32,0.04
2013-8-6,85.3,77.1,72.7,55.7,49.3,39.2,54,39,21,27.43,27.34,8,3,8,0.04
2013-8-7,95.9,83.1,70.7,51.3,32.9,6.1,49,23,4,27.43,27.31,14,3,14,0.00
2013-8-8,101.5,86.2,71.6,39.5,19.0,-2.8,31,12,2,27.37,27.26,20,3,20,0.00
2013-8-9,103.6,87.7,69.6,21.1,8.2,-2.8,15,6,2,27.37,27.26,20,3,20,0.00
2013-8-10,102.7,89.7,77.0,12.4,7.2,-2.8,8,5,2,27.43,27.31,14,3,14,0.00
2013-8-11,103.6,88.7,75.7,36.0,13.4,-2.8,20,7,2,27.40,27.26,27,4,27,0.00
2013-8-12,104.2,90.7,75.0,44.2,18.9,-2.8,31,11,2,27.37,27.26,23,4,23,0.00
2013-8-13,103.5,89.4,74.3,12.4,7.1,-2.8,8,5,2,27.40,27.26,17,4,17,0.00
2013-8-14,104.7,90.4,77.9,31.0,10.2,-2.8,13,6,2,27.40,27.26,31,5,31,0.00
2013-8-15,104.9,91.1,79.0,39.2,18.4,-2.8,23,9,2,27.43,27.28,24,3,24,0.00
2013-8-16,105.8,92.3,80.2,37.2,14.4,-2.8,20,8,2,27.40,27.28,27,3,27,0.00
2013-8-17,106.5,92.5,79.3,40.1,17.5,-2.8,23,9,2,27.40,27.26,15,3,15,0.00
2013-8-18,106.5,92.2,83.3,24.5,9.5,-2.8,11,5,2,27.40,27.31,20,4,20,0.00
2013-8-19,104.9,91.4,81.5,29.8,14.3,-2.8,14,7,2,27.40,27.26,11,3,11,0.00
2013-8-20,104.2,87.7,81.3,47.1,25.8,-2.6,28,13,2,27.40,27.28,26,4,26,0.00
2013-8-21,98.1,86.5,78.1,44.3,26.8,3.5,30,14,3,27.40,27.28,15,3,15,0.00
2013-8-22,101.3,86.2,77.2,40.8,28.1,-2.8,25,15,2,27.40,27.26,25,3,25,0.00
2013-8-23,99.5,85.4,72.9,45.5,28.8,3.5,37,18,3,27.37,27.20,20,4,20,0.00
2013-8-24,86.4,76.8,74.5,50.5,45.4,39.9,43,33,20,27.37,27.31,16,6,16,0.04
2013-8-25,94.1,80.6,75.7,62.0,50.8,31.0,61,38,11,27.40,27.31,21,2,21,0.04
2013-8-26,99.5,81.8,74.3,63.5,51.9,16.2,66,41,5,27.40,27.26,15,2,15,0.09
2013-8-27,101.7,85.3,70.5,58.1,32.3,-2.8,63,26,2,27.31,27.20,24,3,24,0.00
2013-8-28,99.5,86.8,79.5,46.6,33.1,16.1,30,17,5,27.40,27.23,15,4,15,0.00
2013-8-29,92.7,82.7,76.8,54.1,46.9,39.7,44,30,18,27.49,27.37,17,3,17,0.00
2013-8-30,94.1,83.7,76.1,55.0,47.7,31.2,47,31,12,27.46,27.37,10,2,10,0.00
2013-8-31,97.3,85.8,75.2,48.4,39.4,16.5,37,22,6,27.40,27.28,22,4,22,0.00
2013-9-1,98.6,86.7,74.5,46.4,34.7,16.5,34,19,6,27.34,27.23,12,3,12,0.00
2013-9-2,95.7,85.9,78.3,42.8,33.9,16.5,28,17,6,27.40,27.26,12,3,12,0.00
2013-9-3,102.2,84.7,76.1,42.6,33.8,4.2,30,18,3,27.37,27.28,15,3,15,0.00
2013-9-4,100.8,86.2,72.1,44.9,23.7,-2.8,36,15,2,27.37,27.28,22,3,22,0.00
2013-9-5,103.6,88.7,73.4,33.0,12.8,-2.8,21,8,2,27.37,27.28,25,4,25,0.00
2013-9-6,100.6,86.5,76.6,46.7,19.0,-2.8,33,10,2,27.40,27.26,20,3,20,0.00
2013-9-7,90.0,82.2,75.7,46.7,41.9,30.3,34,25,12,27.43,27.28,14,4,14,0.00
2013-9-8,88.7,79.6,74.1,56.2,46.9,40.5,51,33,19,27.31,27.23,18,4,18,0.00
2013-9-9,84.0,76.6,71.2,59.2,51.6,44.7,62,43,26,27.28,27.17,15,2,18,0.84
2013-9-10,86.5,76.3,67.1,55.9,45.2,31.8,66,37,16,27.34,27.20,13,3,13,1.04
2013-9-11,89.8,78.6,67.8,50.7,35.7,16.6,53,27,7,27.40,27.26,17,3,17,0.00
2013-9-12,93.9,81.5,68.9,44.2,31.3,8.6,40,20,5,27.31,27.17,20,4,20,0.00
2013-9-13,97.7,85.0,73.8,46.8,28.7,3.5,36,17,3,27.23,27.08,16,3,16,0.00
2013-9-14,98.2,85.9,76.1,44.2,26.1,3.5,31,14,3,27.20,27.11,15,3,15,0.00
2013-9-15,97.5,85.8,74.7,38.8,23.2,3.5,27,13,3,27.26,27.14,11,3,11,0.00
2013-9-16,98.4,88.7,80.8,35.8,20.9,3.5,19,9,3,27.28,27.20,18,5,18,0.00
2013-9-17,98.6,88.8,79.7,35.7,19.4,3.5,20,9,3,27.28,27.11,17,5,17,0.00
2013-9-18,98.1,86.8,74.8,36.3,13.1,3.5,21,7,3,27.26,27.11,17,3,17,0.00
2013-9-19,95.7,84.2,72.3,21.6,10.8,6.1,14,7,4,27.26,27.14,12,3,12,0.00
2013-9-20,97.9,83.4,70.2,23.5,11.7,3.5,14,7,3,27.28,27.20,26,4,26,0.00
2013-9-21,96.4,84.6,73.8,37.2,21.6,6.1,23,11,4,27.31,27.14,18,4,18,0.00
2013-9-22,93.6,83.1,73.8,41.2,24.6,6.1,25,14,4,27.20,27.08,24,5,24,0.00
2013-9-23,88.3,76.3,63.3,12.5,9.8,6.7,11,8,5,27.31,27.20,9,2,9,0.00
2013-9-24,92.7,78.5,62.6,12.5,9.0,6.1,11,7,4,27.37,27.23,11,3,11,0.00
2013-9-25,93.7,78.6,65.8,12.5,9.5,6.1,10,7,4,27.28,27.11,23,4,23,0.00
2013-9-26,93.0,78.5,64.9,24.9,9.8,0.8,15,8,4,27.20,27.11,22,5,22,0.00
2013-9-27,80.6,74.0,65.7,37.3,18.3,7.6,27,13,7,27.37,27.20,16,5,16,0.00
2013-9-28,85.8,72.0,57.4,12.4,8.9,5.2,12,9,6,27.43,27.34,11,2,11,0.00
2013-9-29,88.2,74.7,61.0,12.9,9.9,6.1,14,8,5,27.49,27.34,10,2,10,0.00
2013-9-30,88.5,74.0,60.3,12.5,9.4,6.0,12,8,5,27.40,27.26,12,2,12,0.00
2013-10-1,89.1,74.4,59.0,12.5,9.2,6.0,12,8,5,27.40,27.28,10,2,10,0.00
2013-10-2,87.8,75.2,62.8,12.5,9.9,6.7,11,8,5,27.40,27.26,10,2,10,0.00
2013-10-3,89.6,76.3,64.4,23.3,11.6,7.4,15,9,5,27.31,27.17,16,4,16,0.00
2013-10-4,84.0,73.2,62.1,16.0,10.4,6.7,14,9,6,27.40,27.26,17,4,17,0.00
2013-10-5,81.1,68.5,56.3,12.4,7.9,-1.1,12,9,7,27.49,27.40,16,3,16,0.00
2013-10-6,86.2,70.7,51.6,12.3,6.6,-1.6,11,8,6,27.49,27.40,13,3,13,0.00
2013-10-7,92.5,76.4,60.4,12.4,8.9,0.5,11,8,4,27.46,27.31,15,3,15,0.00
2013-10-8,86.9,74.2,61.9,12.4,9.7,6.7,11,8,6,27.37,27.20,16,3,16,0.00
2013-10-9,87.1,74.3,60.8,12.4,9.5,6.0,11,8,6,27.26,27.14,25,6,25,0.00
2013-10-10,72.3,66.0,59.4,29.0,19.1,8.3,27,17,9,27.37,27.20,19,5,20,0.00
2013-10-11,75.4,63.6,52.0,26.0,16.4,6.0,34,18,8,27.37,27.31,13,2,13,0.00
2013-10-12,82.6,67.2,51.6,21.3,11.2,4.4,26,12,6,27.34,27.26,11,2,11,0.00
2013-10-13,85.6,71.6,57.6,15.9,9.6,5.5,14,9,6,27.40,27.31,18,4,18,0.00
2013-10-14,80.4,69.0,56.7,25.2,11.2,6.0,25,11,7,27.43,27.34,12,2,12,0.00
2013-10-15,80.6,68.0,55.9,12.8,8.9,4.1,15,10,7,27.37,27.28,17,4,17,0.00
2013-10-16,76.6,64.3,52.2,11.1,5.7,-1.6,13,10,8,27.43,27.37,10,2,10,0.00
2013-10-17,77.2,62.2,46.9,11.2,4.3,-3.8,12,10,8,27.43,27.31,11,2,11,0.00
2013-10-18,78.3,63.1,47.3,12.2,4.8,-3.8,12,10,8,27.40,27.31,12,3,12,0.00
2013-10-19,81.9,64.6,48.6,12.4,5.2,-3.6,14,10,7,27.43,27.34,12,2,12,0.34
2013-10-20,80.4,64.3,48.7,12.4,4.8,-3.6,11,9,7,27.40,27.28,15,2,15,0.34
2013-10-21,81.3,65.2,49.8,12.4,5.4,-2.6,11,9,7,27.43,27.34,9,3,14,0.00
2013-10-22,85.3,69.0,49.8,12.4,6.0,-2.6,11,9,6,27.46,27.34,17,3,17,0.34
2013-10-23,87.8,74.6,64.6,12.5,9.7,6.8,10,8,5,27.40,27.31,17,4,17,0.34
2013-10-24,88.5,72.5,58.8,12.5,8.9,0.1,12,9,5,27.43,27.31,20,3,20,0.34
2013-10-25,82.8,68.6,54.9,12.4,7.2,-1.1,12,9,6,27.49,27.43,11,2,11,0.34
2013-10-26,82.9,67.5,52.2,12.4,7.0,-1.6,13,9,6,27.49,27.43,10,2,10,0.34
2013-10-27,86.2,71.3,58.6,12.4,9.0,6.0,12,9,6,27.43,27.26,14,3,14,0.34
2013-10-28,81.7,69.0,57.9,12.4,9.0,5.6,12,10,7,27.37,27.26,23,4,23,0.34
2013-10-29,81.0,69.5,59.0,12.4,9.0,6.0,12,9,7,27.37,27.26,24,5,24,0.34
2013-10-30,68.0,59.4,51.3,21.0,10.6,2.5,26,15,10,27.43,27.31,20,4,20,0.34
2013-10-31,71.1,57.1,43.0,10.7,5.2,-1.6,23,13,9,27.49,27.40,13,2,13,0.34
2013-11-1,75.2,58.9,43.3,11.1,3.7,-4.9,15,11,8,27.55,27.43,10,2,10,0.34
2013-11-2,81.9,66.2,50.2,33.1,7.1,-2.3,34,10,7,27.46,27.28,20,4,20,0.34
2013-11-3,79.9,66.9,57.6,39.8,25.1,7.8,49,25,7,27.40,27.20,14,2,14,0.34
2013-11-4,77.4,65.8,53.6,29.7,21.2,8.6,35,20,8,27.26,27.14,17,4,17,0.34
2013-11-5,69.8,62.5,55.2,29.5,21.0,12.1,34,21,12,27.49,27.26,13,3,17,0.34
2013-11-6,73.8,60.3,46.6,25.1,14.9,6.7,40,20,8,27.61,27.49,20,3,20,0.34
2013-11-7,78.8,69.3,61.2,12.4,9.1,6.3,11,10,7,27.58,27.43,21,6,21,0.34
2013-11-8,79.2,65.9,53.6,12.4,7.9,0.1,13,10,7,27.46,27.37,11,2,11,0.34
2013-11-9,78.6,64.5,51.4,12.4,8.4,3.1,16,11,8,27.49,27.43,8,2,8,0.34
2013-11-10,82.4,66.3,51.6,16.0,10.0,4.2,24,12,6,27.52,27.40,12,3,12,0.34
2013-11-11,84.4,67.0,52.5,14.1,9.0,3.7,21,11,6,27.49,27.40,13,2,13,0.34
2013-11-12,83.3,71.6,57.0,12.4,9.3,5.1,15,9,6,27.58,27.49,27,6,27,0.34
2013-11-13,76.8,69.3,64.6,13.6,9.5,6.7,13,10,8,27.58,27.40,22,6,22,0.34
2013-11-14,78.1,65.6,54.5,25.6,13.9,6.0,28,15,8,27.43,27.28,10,2,10,0.00
2013-11-15,75.6,66.0,56.8,29.2,16.8,4.8,25,15,8,27.28,27.11,19,4,19,0.00
2013-11-16,74.3,66.0,58.1,33.5,21.8,8.5,36,21,8,27.31,27.14,16,4,16,0.00
2013-11-17,74.1,64.9,55.9,30.6,23.9,13.7,35,23,11,27.43,27.31,11,2,11,0.00
2013-11-18,76.1,64.7,54.5,30.0,22.0,8.6,35,22,8,27.46,27.37,13,2,13,0.00
2013-11-19,75.6,63.0,51.1,27.2,17.6,7.2,36,20,8,27.43,27.26,12,2,12,0.00
2013-11-20,75.0,63.5,53.2,25.2,14.9,6.8,27,17,8,27.31,27.23,15,3,15,0.00
2013-11-21,72.9,65.0,55.4,39.4,17.5,9.9,44,17,9,27.34,27.26,14,2,14,0.00
2013-11-22,63.5,57.4,49.5,45.6,38.7,33.9,62,51,34,27.37,27.23,17,4,17,0.04
2013-11-23,55.9,51.4,49.3,42.5,37.0,30.2,69,59,41,27.43,27.34,15,4,15,0.04
2013-11-24,60.1,52.2,46.9,34.7,28.4,23.9,55,40,27,27.49,27.40,12,3,12,0.04
2013-11-25,58.6,48.9,40.5,28.9,26.4,23.5,57,43,26,27.58,27.46,10,2,10,0.00
2013-11-26,64.6,54.4,43.0,28.6,14.9,3.7,54,26,10,27.61,27.49,16,5,16,0.00
2013-11-27,64.2,57.4,52.0,8.6,5.5,-5.1,13,12,11,27.52,27.37,20,7,20,0.00
2013-11-28,69.8,57.3,48.6,19.2,6.7,1.5,27,13,9,27.46,27.37,13,4,13,0.00
2013-11-29,71.4,57.5,45.5,28.8,21.4,8.5,41,27,9,27.55,27.43,10,2,10,0.00
2013-11-30,53.8,50.7,48.4,29.7,28.2,27.0,47,42,36,27.52,27.49,4,1,4,0.00
2013-12-1,68.7,58.8,51.8,34.3,30.0,24.1,46,35,20,27.58,27.49,8,2,8,0.00
2013-12-2,68.2,55.2,44.6,31.4,23.1,6.7,51,33,10,27.52,27.28,7,2,7,0.00
2013-12-3,70.3,57.3,46.6,25.2,17.4,6.7,38,24,9,27.28,27.14,10,2,10,0.00
2013-12-4,68.7,59.3,49.8,31.9,21.5,7.1,50,25,10,27.31,27.17,24,5,24,0.04
2013-12-5,53.4,48.3,39.2,33.4,23.2,11.0,54,38,24,27.43,27.26,12,4,12,0.21
2013-12-6,52.3,42.1,33.4,18.5,11.3,-0.2,50,31,13,27.49,27.40,9,2,9,0.00
2013-12-7,56.7,44.2,33.1,18.2,10.7,-2.6,46,28,12,27.43,27.31,12,2,12,0.00
2013-12-8,59.2,50.3,43.3,25.2,20.6,11.0,38,31,24,27.46,27.37,12,2,12,0.00
2013-12-9,51.6,44.5,36.3,16.0,5.0,-2.6,32,20,14,27.61,27.43,12,3,12,0.00
2013-12-10,61.5,45.6,33.1,15.6,8.2,-0.2,40,24,11,27.61,27.43,7,2,7,0.00
2013-12-11,69.8,52.1,37.6,21.3,13.2,3.7,39,23,10,27.52,27.43,8,2,8,0.00
2013-12-12,70.2,57.7,49.5,18.6,12.1,7.1,23,17,12,27.52,27.40,15,4,15,0.00
2013-12-13,61.5,49.9,39.9,20.6,14.5,6.0,40,26,14,27.52,27.43,13,2,13,0.00
2013-12-14,62.2,48.4,36.9,21.4,11.9,0.8,43,26,11,27.61,27.52,11,2,11,0.00
2013-12-15,64.8,50.4,37.2,16.0,8.7,2.5,35,20,10,27.61,27.49,10,3,10,0.00
2013-12-16,73.2,53.7,38.7,20.0,11.3,3.5,38,21,9,27.58,27.49,6,2,6,0.00
2013-12-17,76.1,56.2,41.0,19.6,11.3,2.5,34,19,8,27.58,27.43,6,1,6,0.00
2013-12-18,76.1,59.8,48.2,12.8,6.8,1.5,19,12,8,27.46,27.26,10,2,10,0.00
2013-12-19,68.0,57.0,45.7,19.6,7.1,2.1,25,14,10,27.26,27.11,18,4,18,0.00
2013-12-20,56.3,50.7,46.6,33.2,26.5,19.3,55,40,25,27.23,27.05,14,3,14,0.04
2013-12-21,56.1,49.7,45.5,32.7,27.2,20.6,57,43,26,27.40,27.20,17,3,17,0.04
2013-12-22,58.1,47.5,38.5,31.3,24.2,18.2,57,42,25,27.64,27.40,8,1,8,0.00
2013-12-23,62.2,48.4,36.1,26.2,16.4,2.5,54,33,11,27.67,27.58,14,2,14,0.00
2013-12-24,65.7,50.9,39.4,18.5,11.4,2.5,36,22,10,27.58,27.46,13,3,13,0.00
2013-12-25,65.7,51.1,36.7,23.0,13.1,4.5,45,26,10,27.61,27.46,17,3,17,0.00
2013-12-26,64.2,55.9,45.7,8.5,4.4,-3.8,15,12,11,27.58,27.43,22,7,22,0.00
2013-12-27,65.7,53.7,40.3,8.6,4.7,-1.6,23,14,10,27.55,27.43,20,5,20,0.00
2013-12-28,64.9,53.1,40.5,8.6,2.3,-4.9,16,12,10,27.49,27.31,15,3,15,0.00
2013-12-29,63.5,51.3,39.9,19.1,9.0,1.2,35,19,11,27.49,27.31,12,3,12,0.00
2013-12-30,64.0,49.3,37.0,19.4,10.7,2.0,40,23,11,27.61,27.46,9,2,9,0.00
2013-12-31,68.2,51.2,37.0,17.7,9.0,-0.2,35,20,10,27.58,27.43,9,2,9,0.00
2014-1-1,66.7,50.5,37.8,16.6,8.2,-0.2,33,19,10,27.49,27.40,10,2,10,0.00
2014-1-2,70.7,54.7,38.7,19.1,10.1,-1.6,36,19,9,27.52,27.40,13,3,13,0.00